sat.trackr.live / text

‹ back to catalog

ONEWEB-0384

NORAD 49310 · 2021-090AH

PAYLOAD ACTIVE UNKNOWN

§ Identity

Operator
Country
UK
Launch date
2021-10-14
Launch site
VOSTO
Launch vehicle
Mass (kg)
RCS (m²)

Purposes: comms

External: N2YO · Heavens-Above · Gunter

§ Orbital elements

Epoch: 2026-05-25T02:30:51.575040Z

Period
109.02 min
Inclination
87.9178°
Eccentricity
0.0002315
Mean motion
13.20811387 rev/d
Perigee alt
1,179.9 km
Apogee alt
1,183.4 km
Semi-major
7,559.8 km
B*
1.8618e-4
RAAN
279.0803°
Arg perigee
91.9645°
Mean anomaly
268.1753°
Rev number
22,678

§ Raw data

ONEWEB-03841 49310U 21090AH  26145.10476360  .00000089  00000+0  18618-3 0  99972 49310  87.9178 279.0803 0002315  91.9645 268.1753 13.20811387226784

JSON: /api/v1/satellites/49310 · /tle

For live sub-satellite position, see the globe view (requires WebGL).

§ Visibility from observer

Set your observer location to see the next 7 days of passes ≥ 10°. The values pass through the URL so the page stays shareable.

No JS? Fill the form by hand. The geolocation button needs JavaScript.